Location: Newark
(49.3808°N, 3.1844°E)
Time: 11:26:12
(UTC+00:00)

Vanguard 1 Rocket - Pass Details

Date: 24 November 2019
Orbit: 650 x 4226 km, 34.3° (Epoch: 05 December)

Event Time Altitude Azimuth Distance (km) Brightness Sun altitude
Rises 05:32:16 0° 243° (WSW) 2,960 - -15.7°
Exits shadow 05:34:22 - 226° (SW) 2,447 9.3 -15.3°
Reaches altitude 10° 05:36:48 10° 198° (SSW) 2,224 9.4 -14.9°
Maximum altitude 05:37:30 10° 190° (S) 2,253 9.5 -14.8°
Drops below altitude 10° 05:38:13 10° 182° (S) 2,326 9.7 -14.7°
Sets 05:44:00 0° 141° (SE) 3,858 11.6 -13.8°
